User: anonymous   Login
Location: Branche des Alpilles
(43.6087°N, 4.6976°E)
Time: 17:14:12
(UTC+00:00)
Language:

NOAA 16 DEB - Orbit

View from above orbital plane
View from above orbital plane
View from above satellite
View from above satellite

Ground track
Ground track

The orbit data is extracted from the following two-line orbital elements,

1 42413U 00055TH  21172.25600994  .00000802  00000-0  38701-3 0  9994
2 42413  98.8569 274.5174 0030387  45.8523 314.5145 14.21223682274893
Epoch (UTC): 21 June 2021 06:08:39
Eccentricity: 0.0030387
inclination: 98.8569°
perigee height: 799 km
apogee height: 843 km
right ascension of ascending node: 274.5174°
argument of perigee: 45.8523°
revolutions per day: 14.21223682
mean anomaly at epoch: 314.5145°
orbit number at epoch: 27489

The dashed part of the orbit path shows where the satellite is in the earth's shadow,  

DLR